[[{"header":{"parameterUnit":"m.s-1","parameterCategory":1,"la1":30.2991,"la2":30.254,"lo1":-89.0895,"lo2":-89.0444,"dy":0.0017,"dx":0.0017,"nx":28,"ny":28,"refTime":"2025-03-22T21:00:00:Z","depth":0,"parameterNumber":2,"parameterNumberName":"U-component_of_WINDS"},"data":[0,0,0,0,0,0,0,0,0,0,0,0,0,0,0,0,0,0,0,0,0,0,0,0,0,0,0,0,0,0,0,0,0,0,0,0,0,0,0,0,0,0,0,0,0,0,0,0,0,0,0,0,0,0,0,0,0,0,-1.5466,-1.5466,0,-1.5483,-1.5483,-1.5484,-1.5481,-1.5481,-1.548,-1.548,-1.55,-1.55,-1.5501,0,0,0,0,0,0,0,0,0,0,0,0,0,-1.5434,-1.5435,-1.5466,-1.5466,-1.5467,-1.5483,-1.5483,-1.5484,-1.5481,-1.5481,-1.548,-1.548,-1.5499,-1.55,-1.5501,0,0,0,0,0,0,0,0,0,0,0,0,0,-1.5449,-1.5435,-1.5466,-1.5467,-1.5468,-1.5483,-1.5483,-1.5484,-1.5481,-1.5481,-1.548,-1.548,-1.5499,-1.55,-1.5501,-1.5518,0,0,-1.5505,-1.5505,0,0,0,0,0,0,0,0,-1.5448,-1.545,-1.5467,-1.5467,-1.5468,-1.5479,-1.5479,-1.5495,-1.5481,-1.5476,-1.548,-1.548,-1.5493,-1.5495,-1.5499,-1.5518,-1.5519,-1.5505,-1.5506,-1.5506,-1.5507,0,0,0,0,0,0,0,-1.5447,-1.545,-1.5473,-1.5467,-1.5468,-1.5468,-1.5469,-1.5482,-1.5487,-1.5476,-1.5476,-1.5478,-1.5493,-1.5498,-1.55,-1.552,-1.5505,-1.5506,-1.5507,-1.5507,-1.5553,-1.5554,0,0,0,0,0,0,-1.5446,-1.5449,-1.5473,-1.5474,-1.5457,-1.5469,-1.5471,-1.5476,-1.5487,-1.5488,-1.5479,-1.5478,-1.5496,-1.5498,-1.55,-1.552,-1.5506,-1.5507,-1.5508,-1.5553,-1.5554,-1.5554,0,0,0,0,0,0,-1.5445,-1.5448,-1.5472,-1.5461,-1.5464,-1.547,-1.5476,-1.5477,-1.5481,-1.5488,-1.549,-1.5482,-1.5496,-1.5499,-1.5513,-1.552,-1.5508,-1.5509,-1.5552,-1.5553,-1.5554,-1.5559,0,0,0,0,0,0,-1.5444,-1.5448,-1.5453,-1.5461,-1.5465,-1.5484,-1.5476,-1.5477,-1.5483,-1.5482,-1.5492,-1.5493,-1.5496,-1.5511,-1.5514,-1.5522,-1.551,-1.5552,-1.5553,-1.5554,-1.5558,-1.556,-1.5561,0,0,0,0,0,-1.5443,-1.5454,-1.5453,-1.5456,-1.5472,-1.5484,-1.5486,-1.5488,-1.5484,-1.549,-1.5494,-1.5493,-1.5519,-1.5513,-1.5516,-1.5524,-1.5551,-1.5552,-1.5553,-1.5557,-1.5559,-1.5561,0,0,0,0,0,0,-1.5448,-1.5455,-1.5454,-1.5469,-1.5476,-1.5483,-1.5491,-1.549,-1.5499,-1.5498,-1.5501,-1.5503,-1.5518,-1.5523,-1.5515,-1.5541,-1.5535,-1.5537,-1.5537,-1.5539,-1.554,-1.5538,-1.5511,0,0,0,0,0,-1.545,-1.5459,-1.5465,-1.5478,-1.5481,-1.5485,-1.5491,-1.5492,-1.5499,-1.5502,-1.5508,-1.5516,-1.5526,-1.5533,-1.5543,-1.5559,-1.5562,-1.5567,-1.5568,-1.5569,-1.5571,-1.558,-1.5582,-1.5558,-1.5558,-1.5558,0,0,-1.5456,-1.5461,-1.5466,-1.5479,-1.5484,-1.5493,-1.5488,-1.5498,-1.5505,-1.5504,-1.5518,-1.5523,-1.5532,-1.5547,-1.5555,-1.5552,-1.5578,-1.5571,-1.5572,-1.5572,-1.5581,-1.5584,-1.5586,-1.5559,-1.5558,-1.5558,0,0,-1.547,-1.5475,-1.5486,-1.5491,-1.5499,-1.5502,-1.5505,-1.5513,-1.5516,-1.553,-1.5529,-1.5539,-1.5556,-1.5562,-1.5568,-1.5586,-1.5585,-1.5589,-1.5597,-1.5606,-1.5608,-1.561,-1.5616,-1.5618,-1.5591,-1.5591,-1.5591,0,-1.5476,-1.549,-1.5491,-1.5501,-1.5507,-1.5506,-1.5517,-1.5523,-1.5534,-1.5538,-1.5535,-1.5557,-1.5563,-1.558,-1.5584,-1.5589,-1.5593,-1.5588,-1.5607,-1.5609,-1.5611,-1.5617,-1.5619,-1.5591,-1.5591,-1.5591,-1.5591,0,-1.5496,-1.5506,-1.5513,-1.5523,-1.553,-1.554,-1.5545,-1.5551,-1.5552,-1.5556,-1.557,-1.5578,-1.5589,-1.5593,-1.5594,-1.5611,-1.5609,-1.5607,-1.56,-1.5613,-1.5619,-1.5621,-1.5592,-1.5592,-1.5592,-1.5592,0,0,-1.5514,-1.5525,-1.5527,-1.5532,-1.5541,-1.5549,-1.556,-1.557,-1.5576,-1.5584,-1.5593,-1.5608,-1.5606,-1.5613,-1.5615,-1.5623,-1.5637,-1.562,-1.562,-1.5622,-1.5655,-1.5656,-1.5659,-1.5637,-1.5637,-1.5637,-1.5654,0,-1.5529,-1.5547,-1.5549,-1.5565,-1.5574,-1.5574,-1.5584,-1.5591,-1.5595,-1.5604,-1.5609,-1.5619,-1.5616,-1.562,-1.5628,-1.5633,-1.5643,-1.5632,-1.5646,-1.5646,-1.5642,-1.5662,-1.5663,-1.5678,-1.5656,-1.5657,-1.5657,0,-1.5548,-1.5556,-1.5573,-1.5581,-1.5585,-1.5593,-1.5603,-1.5612,-1.562,-1.5623,-1.563,-1.5631,-1.5644,-1.5638,-1.5655,-1.5647,-1.5654,-1.5657,-1.5658,-1.5659,-1.5652,-1.5662,-1.5683,-1.5685,-1.5661,-1.566,-1.566,0,-1.5559,-1.5574,-1.5586,-1.559,-1.56,-1.5605,-1.561,-1.5618,-1.5624,-1.5633,-1.5638,-1.5648,-1.5654,-1.5663,-1.5668,-1.5663,-1.5685,-1.5679,-1.5687,-1.5687,-1.5691,-1.5691,-1.5712,-1.5696,-1.5696,-1.5696,-1.5696,0,-1.5575,-1.5585,-1.559,-1.5598,-1.5609,-1.5612,-1.5624,-1.5629,-1.5636,-1.5645,-1.5647,-1.5655,-1.5661,-1.5671,-1.5674,-1.5688,-1.5691,-1.5694,-1.5694,-1.5693,-1.5693,-1.5697,-1.5695,-1.5697,-1.5696,-1.5696,-1.5696,0,-1.5588,-1.5592,-1.5605,-1.5613,-1.5615,-1.5624,-1.5631,-1.5639,-1.5643,-1.5654,-1.5657,-1.5664,-1.5676,-1.5681,-1.5696,-1.5699,-1.5714,-1.5714,-1.5711,-1.5711,-1.5718,-1.5717,-1.5743,-1.5746,-1.5728,-1.5728,-1.5728,0,-1.5597,-1.5605,-1.5614,-1.562,-1.5624,-1.5633,-1.5639,-1.5643,-1.565,-1.566,-1.5667,-1.5678,-1.5687,-1.5706,-1.5713,-1.5724,-1.5725,-1.5733,-1.5727,-1.5725,-1.5725,-1.5724,-1.5725,-1.5734,-1.5734,-1.5734,-1.5734,0,-1.5614,-1.5616,-1.5624,-1.5633,-1.564,-1.5648,-1.5655,-1.566,-1.5665,-1.5673,-1.5684,-1.5691,-1.5706,-1.5717,-1.5729,-1.5735,-1.5736,-1.5737,-1.5739,-1.5737,-1.5735,-1.5736,-1.5713,-1.5736,-1.5736,-1.5735,-1.5735,-1.5735,-1.5626,-1.5632,-1.564,-1.5649,-1.5655,-1.5662,-1.5669,-1.5674,-1.5683,-1.5695,-1.5697,-1.5709,-1.5718,-1.5734,-1.5741,-1.5751,-1.5749,-1.5753,-1.5754,-1.5754,-1.5754,-1.5733,-1.5753,-1.5753,-1.5753,-1.5753,-1.5753,0,-1.5642,-1.5647,-1.5655,-1.5665,-1.5673,-1.5672,-1.5681,-1.5687,-1.5697,-1.5705,-1.5714,-1.5728,-1.5739,-1.5747,-1.5759,-1.5765,-1.5766,-1.5768,-1.5768,-1.5769,-1.5755,-1.5752,-1.5767,-1.5767,-1.5767,-1.5767,-1.5767,-1.5767,-1.5651,-1.5663,-1.5665,-1.568,-1.5685,-1.5696,-1.5701,-1.5708,-1.5714,-1.5728,-1.5737,-1.5742,-1.5751,-1.5763,-1.5774,-1.5776,-1.578,-1.5782,-1.5785,-1.5772,-1.577,-1.5768,-1.5765,-1.5783,-1.5783,-1.5797,-1.5797,-1.5797]},{"header":{"parameterUnit":"m.s-1","parameterCategory":1,"la1":30.2991,"la2":30.254,"lo1":-89.0895,"lo2":-89.0444,"dy":0.0017,"dx":0.0017,"nx":28,"ny":28,"refTime":"2025-03-22T21:00:00:Z","depth":0,"parameterNumber":3,"parameterNumberName":"V-component_of_WINDS"},"data":[0,0,0,0,0,0,0,0,0,0,0,0,0,0,0,0,0,0,0,0,0,0,0,0,0,0,0,0,0,0,0,0,0,0,0,0,0,0,0,0,0,0,0,0,0,0,0,0,0,0,0,0,0,0,0,0,0,0,5.5345,5.5345,0,5.5384,5.5385,5.5385,5.5411,5.5411,5.5411,5.5412,5.5446,5.5447,5.5448,0,0,0,0,0,0,0,0,0,0,0,0,0,5.529,5.5291,5.5345,5.5345,5.5346,5.5384,5.5385,5.5385,5.5411,5.5411,5.5411,5.5412,5.5446,5.5447,5.5448,0,0,0,0,0,0,0,0,0,0,0,0,0,5.532,5.5291,5.5345,5.5363,5.5366,5.5384,5.5385,5.5385,5.5411,5.5411,5.5412,5.5412,5.5446,5.5447,5.5448,5.5449,0,0,5.5452,5.5452,0,0,0,0,0,0,0,0,5.5318,5.5322,5.536,5.5362,5.5365,5.5393,5.5378,5.5407,5.5411,5.5393,5.5412,5.5412,5.5428,5.5431,5.5437,5.5451,5.5453,5.5452,5.5452,5.5453,5.5453,0,0,0,0,0,0,0,5.5316,5.532,5.536,5.5361,5.5363,5.5369,5.5374,5.5384,5.5408,5.5395,5.5397,5.5402,5.5429,5.5436,5.5438,5.5453,5.5452,5.5453,5.5453,5.5454,5.5474,5.5474,0,0,0,0,0,0,5.5311,5.5318,5.5359,5.5361,5.5342,5.537,5.5375,5.5384,5.5409,5.5413,5.5401,5.5403,5.5434,5.5437,5.544,5.5445,5.5453,5.5454,5.5455,5.5474,5.5474,5.5474,0,0,0,0,0,0,5.531,5.5315,5.5357,5.5341,5.5346,5.5371,5.538,5.5384,5.5391,5.5413,5.5418,5.5404,5.5434,5.5438,5.5448,5.5447,5.5454,5.5455,5.5474,5.5474,5.5474,5.5455,0,0,0,0,0,0,5.5308,5.5314,5.5315,5.534,5.5347,5.5366,5.538,5.5385,5.5394,5.5396,5.5417,5.5421,5.5435,5.5446,5.5449,5.5449,5.5456,5.5474,5.5474,5.5474,5.5456,5.5454,5.5453,0,0,0,0,0,5.5306,5.5306,5.5315,5.532,5.5349,5.5365,5.5369,5.5387,5.5393,5.5395,5.541,5.542,5.5447,5.5447,5.5451,5.545,5.5474,5.5474,5.5474,5.5457,5.5455,5.5453,0,0,0,0,0,0,5.5277,5.531,5.532,5.5328,5.5344,5.537,5.5372,5.5384,5.5397,5.5398,5.5419,5.5423,5.5432,5.5442,5.5442,5.5455,5.5462,5.5462,5.5448,5.5446,5.5445,5.5442,5.5457,0,0,0,0,0,5.5272,5.5284,5.5311,5.5316,5.5324,5.5347,5.5354,5.5367,5.5384,5.539,5.5406,5.542,5.5433,5.544,5.5452,5.5458,5.5464,5.546,5.5458,5.5457,5.5457,5.5464,5.5463,5.5473,5.5473,5.5473,0,0,5.526,5.528,5.5286,5.5311,5.5325,5.5336,5.5352,5.5362,5.5371,5.5391,5.5403,5.5415,5.5433,5.5442,5.5447,5.5451,5.5456,5.5456,5.5455,5.5456,5.5463,5.5462,5.5462,5.5472,5.5472,5.5472,0,0,5.5246,5.5262,5.5269,5.5284,5.5307,5.5322,5.5324,5.5349,5.5359,5.5372,5.5388,5.5398,5.5418,5.5431,5.544,5.5436,5.5447,5.5439,5.5431,5.5438,5.5437,5.5437,5.5437,5.5437,5.5439,5.5439,5.5439,0,5.5229,5.5248,5.527,5.5282,5.5293,5.5315,5.5323,5.5336,5.536,5.5367,5.5372,5.54,5.5413,5.5428,5.5427,5.5433,5.5437,5.5437,5.5436,5.5435,5.5435,5.5436,5.5436,5.5438,5.5439,5.5439,5.5439,0,5.5227,5.524,5.5243,5.527,5.5282,5.5291,5.5315,5.5324,5.5337,5.5352,5.5366,5.5384,5.5401,5.5406,5.5416,5.5422,5.5424,5.5432,5.544,5.5433,5.5434,5.5434,5.5437,5.5437,5.5438,5.5438,0,0,5.5192,5.5235,5.5236,5.525,5.5278,5.5289,5.53,5.532,5.5328,5.5345,5.5355,5.5374,5.5383,5.5393,5.5407,5.5412,5.5411,5.542,5.5421,5.5419,5.5421,5.5415,5.5415,5.5419,5.5419,5.5419,5.542,0,5.5183,5.5206,5.5229,5.5244,5.5258,5.5281,5.5291,5.531,5.5325,5.5339,5.5355,5.5369,5.5379,5.5386,5.5393,5.541,5.5412,5.541,5.5429,5.5429,5.5424,5.5415,5.5409,5.5408,5.542,5.542,5.542,0,5.5175,5.5195,5.5212,5.5244,5.525,5.5259,5.5281,5.5294,5.5316,5.5327,5.5341,5.5357,5.537,5.5377,5.5397,5.5395,5.5404,5.5414,5.5415,5.5417,5.5424,5.5418,5.5408,5.5409,5.542,5.542,5.542,0,5.515,5.5181,5.5197,5.5208,5.5243,5.525,5.5265,5.5288,5.53,5.5319,5.5327,5.5346,5.5356,5.5371,5.5391,5.5394,5.541,5.5417,5.5419,5.5419,5.5421,5.5421,5.5413,5.5426,5.5426,5.5426,5.5426,0,5.5138,5.5148,5.5187,5.5196,5.5209,5.5235,5.5247,5.5263,5.5284,5.5298,5.5318,5.5329,5.5356,5.537,5.5386,5.5401,5.5405,5.5415,5.5419,5.5414,5.5413,5.542,5.5421,5.5426,5.5426,5.5426,5.5426,0,5.5112,5.5138,5.5157,5.5192,5.5201,5.5209,5.5238,5.5248,5.5267,5.5283,5.5288,5.5317,5.5336,5.5358,5.5383,5.5394,5.5408,5.5413,5.5401,5.5404,5.5405,5.5405,5.5403,5.5405,5.5415,5.5415,5.5414,0,5.5103,5.5112,5.5149,5.5161,5.5177,5.5194,5.5208,5.5235,5.5248,5.5277,5.5284,5.5305,5.5324,5.5353,5.5375,5.5395,5.5402,5.54,5.5405,5.54,5.5404,5.5403,5.5405,5.5398,5.5398,5.5398,5.5398,0,5.5084,5.5098,5.5118,5.5144,5.5161,5.5181,5.5202,5.5211,5.5242,5.5256,5.5277,5.5292,5.532,5.5342,5.5366,5.538,5.5394,5.5396,5.5398,5.5393,5.5386,5.5392,5.5399,5.5396,5.5396,5.5396,5.5396,5.5396,5.5067,5.5078,5.5107,5.513,5.515,5.5171,5.5183,5.5205,5.5224,5.5251,5.5266,5.5288,5.5312,5.5347,5.5361,5.5378,5.5383,5.5385,5.5386,5.5386,5.5385,5.5383,5.5382,5.5382,5.5383,5.5383,5.5383,0,5.5052,5.5073,5.5094,5.5125,5.5144,5.5159,5.5184,5.5198,5.5218,5.5241,5.526,5.5286,5.5308,5.5334,5.5357,5.5366,5.5374,5.5372,5.5371,5.5375,5.5379,5.5376,5.5366,5.5366,5.5366,5.5366,5.5366,5.5366,5.5046,5.5066,5.5084,5.5114,5.5135,5.5159,5.5172,5.5192,5.5211,5.5241,5.526,5.5278,5.5302,5.5329,5.535,5.5357,5.5365,5.5361,5.537,5.5373,5.5374,5.5376,5.5373,5.5362,5.5362,5.5365,5.5365,5.5365]}]]